• In Uzbekistan
  • List of Countries
  • For 7 days
  • Water Temperature
  • Satellite Maps
  • Weather Map
  • Weather Widgets
  • user-avatar
    Login

    Hourly Weather Ostrowiec

    Today, 18 February, Monday

    Time Temperature Precipitation Wind Pressure Humidity
    00:00 +5°C° 0 mm 1 mps 762 mmHg 95%
    01:00 +3°C° 0 mm 2 mps 762 mmHg 94%
    02:00 +3°C° 0 mm 2 mps 761 mmHg 94%
    03:00 +3°C° 0 mm 2 mps 761 mmHg 95%
    04:00 +3°C° 0 mm 2 mps 761 mmHg 95%
    05:00 +3°C° 0 mm 2 mps 761 mmHg 95%
    06:00 +2°C° 0 mm 3 mps 761 mmHg 95%
    07:00 +2°C° 0 mm 3 mps 760 mmHg 93%
    08:00 +3°C° 0 mm 3 mps 760 mmHg 89%
    09:00 +4°C° 0 mm 4 mps 760 mmHg 85%
    10:00 +5°C° 0 mm 4 mps 760 mmHg 80%
    11:00 +6°C° 0 mm 4 mps 760 mmHg 75%
    12:00 +7°C° 0 mm 4 mps 759 mmHg 69%
    13:00 +10°C° 0 mm 4 mps 759 mmHg 63%
    14:00 +8°C° 0 mm 4 mps 759 mmHg 63%
    15:00 +9°C° 0 mm 3 mps 758 mmHg 64%
    16:00 +9°C° 0 mm 3 mps 758 mmHg 64%
    17:00 +8°C° 0 mm 3 mps 758 mmHg 68%
    18:00 +7°C° 0 mm 3 mps 757 mmHg 73%
    19:00 +5°C° 0 mm 3 mps 757 mmHg 78%
    20:00 +4°C° 0 mm 3 mps 757 mmHg 79%
    21:00 +4°C° 0 mm 3 mps 757 mmHg 81%
    22:00 +4°C° 0 mm 3 mps 756 mmHg 82%
    23:00 +3°C° 0 mm 3 mps 756 mmHg 83%

    Tomorrow, 19 February, Tuesday

    Time Temperature Precipitation Wind Pressure Humidity
    00:00 +3°C° 0 mm 3 mps 756 mmHg 84%
    01:00 +3°C° 0 mm 3 mps 755 mmHg 84%
    02:00 +3°C° 0 mm 3 mps 755 mmHg 84%
    03:00 +3°C° 0 mm 3 mps 754 mmHg 83%
    04:00 +3°C° 0 mm 4 mps 754 mmHg 83%
    05:00 +3°C° 0 mm 4 mps 753 mmHg 84%
    06:00 +3°C° 0 mm 4 mps 753 mmHg 86%
    07:00 +1°C° 0 mm 5 mps 752 mmHg 88%
    08:00 +2°C° 0 mm 5 mps 752 mmHg 85%
    09:00 +3°C° 0 mm 5 mps 752 mmHg 82%
    10:00 +4°C° 0 mm 6 mps 752 mmHg 79%
    11:00 +5°C° 0.1 mm 6 mps 752 mmHg 79%
    12:00 +5°C° 0.1 mm 7 mps 752 mmHg 79%
    13:00 +6°C° 0.1 mm 7 mps 752 mmHg 80%
    14:00 +5°C° 0.4 mm 7 mps 752 mmHg 81%
    15:00 +5°C° 0.4 mm 7 mps 752 mmHg 81%
    16:00 +5°C° 0.4 mm 7 mps 752 mmHg 82%
    17:00 +5°C° 0.1 mm 7 mps 752 mmHg 81%
    18:00 +4°C° 0.1 mm 7 mps 752 mmHg 81%
    19:00 +4°C° 0.1 mm 7 mps 752 mmHg 80%
    20:00 +4°C° 0.2 mm 7 mps 752 mmHg 81%
    21:00 +4°C° 0.2 mm 8 mps 752 mmHg 81%
    22:00 +4°C° 0.2 mm 8 mps 752 mmHg 82%
    23:00 +2°C° 0 mm 8 mps 753 mmHg 83%

    Day after tomorrow, 20 February, Wednesday

    Time Temperature Precipitation Wind Pressure Humidity
    00:00 +2°C° 0 mm 8 mps 753 mmHg 84%
    01:00 +2°C° 0 mm 7 mps 753 mmHg 86%
    02:00 +1°C° 0 mm 8 mps 753 mmHg 86%
    03:00 +1°C° 0 mm 8 mps 753 mmHg 86%
    04:00 +1°C° 0 mm 8 mps 753 mmHg 86%
    05:00 +1°C° 0.1 mm 8 mps 754 mmHg 85%
    06:00 +1°C° 0.1 mm 8 mps 754 mmHg 85%
    07:00 +1°C° 0.1 mm 8 mps 754 mmHg 84%
    08:00 +1°C° 0 mm 8 mps 755 mmHg 82%
    09:00 +2°C° 0 mm 8 mps 755 mmHg 81%
    10:00 +2°C° 0 mm 8 mps 756 mmHg 80%
    11:00 +2°C° 0 mm 8 mps 756 mmHg 80%
    12:00 +3°C° 0 mm 7 mps 756 mmHg 80%
    13:00 +4°C° 0 mm 7 mps 757 mmHg 79%
    14:00 +4°C° 0 mm 7 mps 757 mmHg 80%
    15:00 +4°C° 0 mm 6 mps 757 mmHg 80%
    16:00 +4°C° 0 mm 6 mps 757 mmHg 80%
    17:00 +5°C° 0.1 mm 5 mps 757 mmHg 83%
    18:00 +5°C° 0.1 mm 5 mps 758 mmHg 85%
    19:00 +4°C° 0.1 mm 4 mps 758 mmHg 88%
    20:00 +4°C° 0.3 mm 4 mps 758 mmHg 88%
    21:00 +5°C° 0.3 mm 4 mps 758 mmHg 89%
    22:00 +5°C° 0.3 mm 4 mps 758 mmHg 89%
    23:00 +5°C° 0.4 mm 5 mps 757 mmHg 89%

    21 February, Thursday

    Time Temperature Precipitation Wind Pressure Humidity
    00:00 +5°C° 0.4 mm 5 mps 757 mmHg 88%
    01:00 +4°C° 0.4 mm 6 mps 757 mmHg 87%
    02:00 +4°C° 0.7 mm 6 mps 757 mmHg 88%
    03:00 +4°C° 0.7 mm 6 mps 756 mmHg 89%
    04:00 +4°C° 0.7 mm 7 mps 756 mmHg 90%
    05:00 +4°C° 0.5 mm 7 mps 756 mmHg 91%
    06:00 +4°C° 0.5 mm 7 mps 756 mmHg 92%
    07:00 +4°C° 0.5 mm 7 mps 756 mmHg 92%
    08:00 +4°C° 0.1 mm 7 mps 757 mmHg 92%
    09:00 +5°C° 0.1 mm 7 mps 757 mmHg 91%
    10:00 +5°C° 0.1 mm 6 mps 757 mmHg 91%
    11:00 +5°C° 0.1 mm 6 mps 757 mmHg 91%
    12:00 +5°C° 0.1 mm 6 mps 758 mmHg 90%
    13:00 +5°C° 0.1 mm 6 mps 758 mmHg 90%
    14:00 +5°C° 0 mm 6 mps 759 mmHg 89%
    15:00 +6°C° 0 mm 5 mps 759 mmHg 89%
    16:00 +6°C° 0 mm 5 mps 759 mmHg 88%
    17:00 +5°C° 0 mm 5 mps 760 mmHg 88%
    18:00 +5°C° 0 mm 4 mps 761 mmHg 88%
    19:00 +5°C° 0 mm 4 mps 761 mmHg 89%
    20:00 +5°C° 0 mm 3 mps 762 mmHg 90%
    21:00 +4°C° 0 mm 3 mps 763 mmHg 90%
    22:00 +5°C° 0 mm 2 mps 763 mmHg 91%
    23:00 +5°C° 0 mm 2 mps 764 mmHg 90%

    22 February, Friday

    Time Temperature Precipitation Wind Pressure Humidity
    00:00 +4°C° 0 mm 2 mps 765 mmHg 90%
    01:00 +4°C° 0 mm 2 mps 766 mmHg 89%
    02:00 +3°C° 0 mm 2 mps 766 mmHg 89%
    03:00 +3°C° 0 mm 2 mps 767 mmHg 90%
    04:00 +2°C° 0 mm 2 mps 768 mmHg 90%
    05:00 +2°C° 0 mm 2 mps 768 mmHg 90%
    06:00 +1°C° 0 mm 2 mps 769 mmHg 89%
    07:00 +1°C° 0 mm 2 mps 770 mmHg 88%
    08:00 +2°C° 0 mm 2 mps 771 mmHg 81%
    09:00 +2°C° 0 mm 2 mps 772 mmHg 74%
    10:00 +3°C° 0 mm 2 mps 772 mmHg 67%
    11:00 +4°C° 0 mm 2 mps 773 mmHg 63%
    12:00 +5°C° 0 mm 2 mps 773 mmHg 58%
    13:00 +7°C° 0 mm 1 mps 774 mmHg 54%
    14:00 +7°C° 0 mm 1 mps 774 mmHg 54%
    15:00 +7°C° 0 mm 1 mps 774 mmHg 54%
    16:00 +7°C° 0 mm 1 mps 774 mmHg 55%
    17:00 +6°C° 0 mm 1 mps 774 mmHg 59%
    18:00 +4°C° 0 mm 2 mps 774 mmHg 63%
    19:00 +3°C° 0 mm 2 mps 774 mmHg 67%
    20:00 +3°C° 0 mm 2 mps 774 mmHg 68%
    21:00 +2°C° 0 mm 3 mps 774 mmHg 69%
    22:00 +2°C° 0 mm 3 mps 774 mmHg 70%
    23:00 +1°C° 0 mm 3 mps 774 mmHg 71%

    23 February, Saturday

    Time Temperature Precipitation Wind Pressure Humidity
    00:00 +1°C° 0 mm 3 mps 774 mmHg 71%
    01:00 0°C° 0 mm 4 mps 774 mmHg 72%
    02:00 +1°C° 0 mm 4 mps 774 mmHg 76%
    03:00 +1°C° 0 mm 4 mps 773 mmHg 79%
    04:00 +1°C° 0 mm 4 mps 773 mmHg 83%
    05:00 +3°C° 0 mm 4 mps 772 mmHg 87%
    06:00 +2°C° 0 mm 5 mps 772 mmHg 92%
    07:00 +3°C° 0 mm 5 mps 772 mmHg 96%
    08:00 +3°C° 0 mm 5 mps 771 mmHg 94%
    09:00 +4°C° 0 mm 6 mps 771 mmHg 92%
    10:00 +5°C° 0 mm 6 mps 771 mmHg 89%
    11:00 +5°C° 0 mm 6 mps 771 mmHg 84%
    12:00 +7°C° 0 mm 6 mps 770 mmHg 79%
    13:00 +8°C° 0 mm 6 mps 770 mmHg 75%
    14:00 +7°C° 0 mm 6 mps 770 mmHg 74%
    15:00 +7°C° 0 mm 6 mps 770 mmHg 74%
    16:00 +7°C° 0 mm 6 mps 769 mmHg 74%
    17:00 +6°C° 0 mm 5 mps 769 mmHg 77%
    18:00 +5°C° 0 mm 5 mps 769 mmHg 80%
    19:00 +5°C° 0 mm 5 mps 769 mmHg 83%
    20:00 +5°C° 0 mm 5 mps 769 mmHg 84%
    21:00 +5°C° 0 mm 4 mps 769 mmHg 84%
    22:00 +4°C° 0 mm 4 mps 769 mmHg 85%
    23:00 +4°C° 0 mm 4 mps 769 mmHg 86%
    Show more